Location: Cheyres
(46.8153°N, 6.7877°E)
Time: 13:53:56
(UTC+00:00)

Cosmos 2154 Rocket - Pass Details

Date: 11 May 2021
Orbit: 965 x 997 km, 82.9° (Epoch: 19 June)

Event Time Altitude Azimuth Distance (km) Brightness Sun altitude
Rises 20:57:41 0° 354° (N) 3,722 8.1 -16.7°
Reaches altitude 10° 21:00:17 10° 358° (N) 2,765 7.2 -16.9°
Maximum altitude 21:06:32 57° 77° (ENE) 1,152 4.2 -17.6°
Enters shadow 21:09:44 29° 144° (SE) 1,730 4.7 -17.9°
